Time,TemperatureF,DewpointF,PressureIn,WindDirection,WindDirectionDegrees,WindSpeedMPH,WindSpeedGustMPH,Humidity,HourlyPrecipIn,Conditions,Clouds,dailyrainin,SoftwareType,DateUTC
2013-06-26 00:01:00,66.7,48.1,27.55,SSW,212,0.0,0.0,51,0.00,,---,0.00,VWS V14.01,2013-06-26 04:01:00,
2013-06-26 00:06:00,66.7,48.1,27.55,SSW,212,0.0,0.0,51,0.00,,---,0.00,VWS V14.01,2013-06-26 04:06:00,
2013-06-26 00:11:00,66.7,48.1,27.55,SSW,212,0.0,0.0,51,0.00,,---,0.00,VWS V14.01,2013-06-26 04:11:00,
2013-06-26 00:16:00,66.6,48.4,27.55,SSW,212,0.0,0.0,52,0.00,,---,0.00,VWS V14.01,2013-06-26 04:16:00,
2013-06-26 00:21:00,66.6,48.4,27.55,SSW,212,0.0,0.0,52,0.00,,---,0.00,VWS V14.01,2013-06-26 04:21:00,
2013-06-26 00:26:00,66.4,48.2,27.55,SSW,212,0.0,0.0,52,0.00,,---,0.00,VWS V14.01,2013-06-26 04:26:00,
2013-06-26 00:31:00,66.4,48.2,27.55,SSW,212,0.0,0.0,52,0.00,,---,0.00,VWS V14.01,2013-06-26 04:31:00,
2013-06-26 00:36:00,66.2,48.1,27.55,SSW,212,0.0,0.0,52,0.00,,---,0.00,VWS V14.01,2013-06-26 04:36:00,
2013-06-26 00:41:00,66.2,48.6,27.55,SSW,212,0.0,0.0,53,0.00,,---,0.00,VWS V14.01,2013-06-26 04:41:00,
2013-06-26 00:46:00,66.2,48.6,27.55,SSW,212,0.0,0.0,53,0.00,,---,0.00,VWS V14.01,2013-06-26 04:46:00,
2013-06-26 00:51:00,66.4,48.8,27.55,SSW,212,0.0,0.0,53,0.00,,---,0.00,VWS V14.01,2013-06-26 04:51:00,
2013-06-26 00:56:00,66.4,48.8,27.55,SSW,212,0.0,0.0,53,0.00,,---,0.00,VWS V14.01,2013-06-26 04:56:00,
2013-06-26 01:01:00,66.4,48.8,27.55,SSW,212,0.0,0.0,53,0.00,,---,0.00,VWS V14.01,2013-06-26 05:01:00,
2013-06-26 01:06:00,66.4,48.8,27.55,SSW,212,0.0,0.0,53,0.00,,---,0.00,VWS V14.01,2013-06-26 05:06:00,
2013-06-26 01:11:00,66.2,48.6,27.55,SSW,212,0.0,0.0,53,0.00,,---,0.00,VWS V14.01,2013-06-26 05:11:00,
2013-06-26 01:16:00,66.0,48.9,27.55,SSW,213,0.0,0.0,54,0.00,,---,0.00,VWS V14.01,2013-06-26 05:16:00,
2013-06-26 01:21:00,66.0,48.9,27.55,SSW,212,0.0,0.0,54,0.00,,---,0.00,VWS V14.01,2013-06-26 05:21:00,
2013-06-26 01:26:00,65.8,48.8,27.52,SSW,212,0.0,0.0,54,0.00,,---,0.00,VWS V14.01,2013-06-26 05:26:00,
2013-06-26 01:31:00,65.7,48.6,27.52,SSW,212,0.0,0.0,54,0.00,,---,0.00,VWS V14.01,2013-06-26 05:31:00,
2013-06-26 01:36:00,65.7,49.1,27.52,SSW,212,0.0,0.0,55,0.00,,---,0.00,VWS V14.01,2013-06-26 05:36:00,
2013-06-26 01:41:00,65.7,49.1,27.52,SSW,212,0.0,0.0,55,0.00,,---,0.00,VWS V14.01,2013-06-26 05:41:00,
2013-06-26 01:46:00,65.7,49.6,27.52,SSW,212,0.0,0.0,56,0.00,,---,0.00,VWS V14.01,2013-06-26 05:46:00,
2013-06-26 01:51:00,65.7,49.6,27.52,SSW,212,0.0,0.0,56,0.00,,---,0.00,VWS V14.01,2013-06-26 05:51:00,
2013-06-26 01:56:00,65.7,49.6,27.52,SSW,212,0.0,0.0,56,0.00,,---,0.00,VWS V14.01,2013-06-26 05:56:00,
2013-06-26 02:01:00,65.5,49.4,27.52,SSW,212,0.0,0.0,56,0.00,,---,0.00,VWS V14.01,2013-06-26 06:01:00,
2013-06-26 02:06:00,65.5,49.4,27.52,SSW,212,0.0,0.0,56,0.00,,---,0.00,VWS V14.01,2013-06-26 06:06:00,
2013-06-26 02:11:00,65.5,49.9,27.52,SSW,212,0.0,0.0,57,0.00,,---,0.00,VWS V14.01,2013-06-26 06:11:00,
2013-06-26 02:16:00,65.5,49.9,27.52,SSW,212,0.0,0.0,57,0.00,,---,0.00,VWS V14.01,2013-06-26 06:16:00,
2013-06-26 02:21:00,65.5,49.9,27.52,SSW,212,0.0,0.0,57,0.00,,---,0.00,VWS V14.01,2013-06-26 06:21:00,
2013-06-26 02:26:00,65.5,49.9,27.52,SSW,212,0.0,0.0,57,0.00,,---,0.00,VWS V14.01,2013-06-26 06:26:00,
2013-06-26 02:31:00,65.5,49.9,27.52,SSW,212,0.0,0.0,57,0.00,,---,0.00,VWS V14.01,2013-06-26 06:31:00,
2013-06-26 02:36:00,65.5,50.3,27.52,SSW,212,0.0,0.0,58,0.00,,---,0.00,VWS V14.01,2013-06-26 06:36:00,
2013-06-26 02:41:00,65.3,50.2,27.52,SSW,212,0.0,0.0,58,0.00,,---,0.00,VWS V14.01,2013-06-26 06:41:00,
2013-06-26 02:46:00,65.3,50.2,27.52,SSW,212,0.0,0.0,58,0.00,,---,0.00,VWS V14.01,2013-06-26 06:46:00,
2013-06-26 02:51:00,65.3,50.6,27.52,SSW,212,0.0,0.0,59,0.00,,---,0.00,VWS V14.01,2013-06-26 06:51:00,
2013-06-26 02:56:00,65.5,50.8,27.49,SSW,212,0.0,0.0,59,0.00,,---,0.00,VWS V14.01,2013-06-26 06:56:00,
2013-06-26 03:01:00,65.5,51.2,27.49,SSW,212,0.0,0.0,60,0.00,,---,0.00,VWS V14.01,2013-06-26 07:01:00,
2013-06-26 03:06:00,65.5,51.2,27.49,SSW,212,0.0,0.0,60,0.00,,---,0.00,VWS V14.01,2013-06-26 07:06:00,
2013-06-26 03:11:00,65.7,51.9,27.49,SSW,212,0.0,0.0,61,0.00,,---,0.00,VWS V14.01,2013-06-26 07:11:00,
2013-06-26 03:16:00,65.7,51.9,27.49,SSW,212,0.0,0.0,61,0.00,,---,0.00,VWS V14.01,2013-06-26 07:16:00,
2013-06-26 03:21:00,65.7,51.9,27.49,SSW,212,0.0,0.0,61,0.00,,---,0.00,VWS V14.01,2013-06-26 07:21:00,
2013-06-26 03:26:00,65.7,51.9,27.49,SSW,212,0.0,0.0,61,0.00,,---,0.00,VWS V14.01,2013-06-26 07:26:00,
2013-06-26 03:31:00,65.5,51.7,27.49,SSW,212,0.0,0.0,61,0.00,,---,0.00,VWS V14.01,2013-06-26 07:31:00,
2013-06-26 03:36:00,65.5,51.7,27.49,SSW,212,0.0,0.0,61,0.00,,---,0.00,VWS V14.01,2013-06-26 07:36:00,
2013-06-26 03:41:00,65.5,52.1,27.49,SSW,212,0.0,0.0,62,0.00,,---,0.00,VWS V14.01,2013-06-26 07:41:00,
2013-06-26 03:46:00,65.3,52.0,27.49,SSW,212,0.0,0.0,62,0.00,,---,0.00,VWS V14.01,2013-06-26 07:46:00,
2013-06-26 03:51:00,65.3,52.0,27.49,SSW,212,0.0,0.0,62,0.00,,---,0.00,VWS V14.01,2013-06-26 07:51:00,
2013-06-26 03:56:00,65.3,52.0,27.49,SSW,212,0.0,0.0,62,0.00,,---,0.00,VWS V14.01,2013-06-26 07:56:00,
2013-06-26 04:01:00,65.3,52.4,27.49,SSW,212,0.0,0.0,63,0.00,,---,0.00,VWS V14.01,2013-06-26 08:01:00,
2013-06-26 04:06:00,65.3,52.4,27.49,SSW,212,0.0,0.0,63,0.00,,---,0.00,VWS V14.01,2013-06-26 08:06:00,
2013-06-26 04:11:00,65.3,52.4,27.49,SSW,212,0.0,0.0,63,0.00,,---,0.00,VWS V14.01,2013-06-26 08:11:00,
2013-06-26 04:16:00,65.1,52.2,27.49,SSW,212,0.0,0.0,63,0.00,,---,0.00,VWS V14.01,2013-06-26 08:16:00,
2013-06-26 04:21:00,65.1,52.2,27.49,SSW,212,0.0,0.0,63,0.00,,---,0.00,VWS V14.01,2013-06-26 08:21:00,
2013-06-26 04:26:00,64.9,52.1,27.49,SSW,212,0.0,0.0,63,0.00,,---,0.00,VWS V14.01,2013-06-26 08:26:00,
2013-06-26 04:31:00,64.9,52.1,27.49,SSW,212,0.0,0.0,63,0.00,,---,0.00,VWS V14.01,2013-06-26 08:31:00,
2013-06-26 04:36:00,64.9,52.5,27.49,SSW,212,0.0,0.0,64,0.00,,---,0.00,VWS V14.01,2013-06-26 08:36:00,
2013-06-26 04:41:00,64.9,52.5,27.49,SSW,212,0.0,0.0,64,0.00,,---,0.00,VWS V14.01,2013-06-26 08:41:00,
2013-06-26 04:46:00,64.8,52.3,27.49,SSW,212,0.0,0.0,64,0.00,,---,0.00,VWS V14.01,2013-06-26 08:46:00,
2013-06-26 04:51:00,64.8,52.3,27.49,SSW,212,0.0,0.0,64,0.00,,---,0.00,VWS V14.01,2013-06-26 08:51:00,
2013-06-26 04:56:00,64.6,51.7,27.52,SSW,212,0.0,0.0,63,0.00,,---,0.00,VWS V14.01,2013-06-26 08:56:00,
2013-06-26 05:01:00,64.4,52.0,27.52,SSW,212,0.0,0.0,64,0.00,,---,0.00,VWS V14.01,2013-06-26 09:01:00,
2013-06-26 05:06:00,64.4,52.0,27.52,SSW,212,0.0,0.0,64,0.00,,---,0.00,VWS V14.01,2013-06-26 09:06:00,
2013-06-26 05:11:00,64.4,52.0,27.52,SSW,212,0.0,0.0,64,0.00,,---,0.00,VWS V14.01,2013-06-26 09:11:00,
2013-06-26 05:16:00,64.4,52.0,27.52,SSW,212,0.0,0.0,64,0.00,,---,0.00,VWS V14.01,2013-06-26 09:16:00,
2013-06-26 05:21:00,64.2,51.8,27.52,SSW,212,0.0,0.0,64,0.00,,---,0.00,VWS V14.01,2013-06-26 09:21:00,
2013-06-26 05:26:00,64.2,51.8,27.52,SSW,212,0.0,0.0,64,0.00,,---,0.00,VWS V14.01,2013-06-26 09:26:00,
2013-06-26 05:31:00,64.2,52.2,27.52,SSW,212,0.0,0.0,65,0.00,,---,0.00,VWS V14.01,2013-06-26 09:31:00,
2013-06-26 05:36:00,64.2,52.2,27.52,SSW,212,0.0,0.0,65,0.00,,---,0.00,VWS V14.01,2013-06-26 09:36:00,
2013-06-26 05:41:00,64.2,52.2,27.52,SSW,212,0.0,0.0,65,0.00,,---,0.00,VWS V14.01,2013-06-26 09:41:00,
2013-06-26 05:46:00,64.2,52.2,27.52,SSW,212,0.0,0.0,65,0.00,,---,0.00,VWS V14.01,2013-06-26 09:46:00,
2013-06-26 05:51:00,64.2,52.2,27.52,SSW,212,0.0,0.0,65,0.00,,---,0.00,VWS V14.01,2013-06-26 09:51:00,
2013-06-26 05:56:00,64.2,52.2,27.52,SSW,212,0.0,0.0,65,0.00,,---,0.00,VWS V14.01,2013-06-26 09:56:00,
2013-06-26 06:01:00,64.0,52.0,27.52,SSW,212,0.0,0.0,65,0.00,,---,0.00,VWS V14.01,2013-06-26 10:01:00,
2013-06-26 06:06:00,64.0,52.0,27.52,SSW,212,0.0,0.0,65,0.00,,---,0.00,VWS V14.01,2013-06-26 10:06:00,
2013-06-26 06:11:00,63.9,51.9,27.55,SSW,212,0.0,0.0,65,0.00,,---,0.00,VWS V14.01,2013-06-26 10:11:00,
2013-06-26 06:16:00,64.0,52.5,27.55,SSW,212,0.0,0.0,66,0.00,,---,0.00,VWS V14.01,2013-06-26 10:16:00,
2013-06-26 06:21:00,64.4,53.2,27.55,SSW,212,0.0,0.0,67,0.00,,---,0.00,VWS V14.01,2013-06-26 10:21:00,
2013-06-26 06:26:00,64.8,53.6,27.55,West,275,0.0,0.0,67,0.00,,---,0.00,VWS V14.01,2013-06-26 10:26:00,
2013-06-26 06:31:00,65.1,53.9,27.55,West,276,0.0,0.0,67,0.00,,---,0.00,VWS V14.01,2013-06-26 10:31:00,
2013-06-26 06:36:00,65.5,54.2,27.55,West,276,0.0,0.0,67,0.00,,---,0.00,VWS V14.01,2013-06-26 10:36:00,
2013-06-26 06:41:00,65.7,54.4,27.55,West,276,0.0,0.0,67,0.00,,---,0.00,VWS V14.01,2013-06-26 10:41:00,
2013-06-26 06:46:00,65.7,54.4,27.55,West,276,0.0,0.0,67,0.00,,---,0.00,VWS V14.01,2013-06-26 10:46:00,
2013-06-26 06:51:00,65.7,54.4,27.55,West,276,0.0,0.0,67,0.00,,---,0.00,VWS V14.01,2013-06-26 10:51:00,
2013-06-26 06:56:00,65.7,54.4,27.55,West,276,0.0,0.0,67,0.00,,---,0.00,VWS V14.01,2013-06-26 10:56:00,
2013-06-26 07:01:00,65.5,54.2,27.55,West,276,0.0,0.0,67,0.00,,---,0.00,VWS V14.01,2013-06-26 11:01:00,
2013-06-26 07:06:00,65.5,54.2,27.55,West,276,0.0,0.0,67,0.00,,---,0.00,VWS V14.01,2013-06-26 11:06:00,
2013-06-26 07:11:00,65.3,54.1,27.55,West,276,0.0,0.0,67,0.00,,---,0.00,VWS V14.01,2013-06-26 11:11:00,
2013-06-26 07:16:00,65.3,54.1,27.55,West,276,0.0,0.0,67,0.00,,---,0.00,VWS V14.01,2013-06-26 11:16:00,
2013-06-26 07:21:00,65.1,53.5,27.55,West,276,0.0,0.0,66,0.00,,---,0.00,VWS V14.01,2013-06-26 11:21:00,
2013-06-26 07:26:00,65.1,53.5,27.55,West,276,0.0,0.0,66,0.00,,---,0.00,VWS V14.01,2013-06-26 11:26:00,
2013-06-26 07:31:00,65.1,53.9,27.55,West,276,0.0,0.0,67,0.00,,---,0.00,VWS V14.01,2013-06-26 11:31:00,
2013-06-26 07:36:00,65.3,54.1,27.55,West,276,0.0,0.0,67,0.00,,---,0.00,VWS V14.01,2013-06-26 11:36:00,
2013-06-26 07:41:00,65.5,54.2,27.55,West,276,0.0,0.0,67,0.00,,---,0.00,VWS V14.01,2013-06-26 11:41:00,
2013-06-26 07:46:00,65.7,54.8,27.55,West,276,0.0,0.0,68,0.00,,---,0.00,VWS V14.01,2013-06-26 11:46:00,
2013-06-26 07:51:00,65.8,55.0,27.55,West,276,0.0,0.0,68,0.00,,---,0.00,VWS V14.01,2013-06-26 11:51:00,
2013-06-26 07:56:00,66.0,55.2,27.55,West,276,0.0,0.0,68,0.00,,---,0.00,VWS V14.01,2013-06-26 11:56:00,
2013-06-26 08:01:00,66.2,55.3,27.55,West,276,0.0,0.0,68,0.00,,---,0.00,VWS V14.01,2013-06-26 12:01:00,
2013-06-26 08:06:00,66.4,55.5,27.55,West,276,0.0,0.0,68,0.00,,---,0.00,VWS V14.01,2013-06-26 12:06:00,
2013-06-26 08:11:00,66.6,55.7,27.55,West,276,0.0,0.0,68,0.00,,---,0.00,VWS V14.01,2013-06-26 12:11:00,
2013-06-26 08:16:00,66.7,55.8,27.55,West,276,0.0,0.0,68,0.00,,---,0.00,VWS V14.01,2013-06-26 12:16:00,
2013-06-26 08:21:00,67.1,56.2,27.55,West,276,0.0,0.0,68,0.00,,---,0.00,VWS V14.01,2013-06-26 12:21:00,
2013-06-26 08:26:00,67.5,56.5,27.55,West,276,0.0,0.0,68,0.00,,---,0.00,VWS V14.01,2013-06-26 12:26:00,
2013-06-26 08:31:00,67.8,57.3,27.55,West,276,0.0,0.0,69,0.00,,---,0.00,VWS V14.01,2013-06-26 12:31:00,
2013-06-26 08:36:00,68.2,57.2,27.55,West,276,0.0,0.0,68,0.00,,---,0.00,VWS V14.01,2013-06-26 12:36:00,
2013-06-26 08:41:00,68.5,57.6,27.55,West,276,0.0,0.0,68,0.00,,---,0.00,VWS V14.01,2013-06-26 12:41:00,
2013-06-26 08:45:00,68.7,57.7,27.55,West,276,0.0,0.0,68,0.00,,---,0.00,VWS V14.01,2013-06-26 12:45:00,
2013-06-26 08:50:00,69.1,58.1,27.55,West,276,0.0,0.0,68,0.00,,---,0.00,VWS V14.01,2013-06-26 12:50:00,
2013-06-26 08:55:00,69.4,58.4,27.55,West,276,0.0,0.0,68,0.00,,---,0.00,VWS V14.01,2013-06-26 12:55:00,
2013-06-26 09:00:00,69.6,58.2,27.55,West,276,0.0,0.0,67,0.00,,---,0.00,VWS V14.01,2013-06-26 13:00:00,
2013-06-26 09:05:00,70.0,58.5,27.55,West,276,0.0,0.0,67,0.00,,---,0.00,VWS V14.01,2013-06-26 13:05:00,
2013-06-26 09:10:00,70.3,58.5,27.55,West,276,0.0,0.0,66,0.00,,---,0.00,VWS V14.01,2013-06-26 13:10:00,
2013-06-26 09:15:00,70.9,59.0,27.55,West,276,0.0,0.0,66,0.00,,---,0.00,VWS V14.01,2013-06-26 13:15:00,
2013-06-26 09:20:00,71.2,59.3,27.55,West,264,2.2,3.1,66,0.00,,---,0.00,VWS V14.01,2013-06-26 13:20:00,
2013-06-26 09:25:00,71.6,59.2,27.55,West,264,0.0,0.0,65,0.00,,---,0.00,VWS V14.01,2013-06-26 13:25:00,
2013-06-26 09:30:00,72.0,59.1,27.55,West,264,0.0,0.0,64,0.00,,---,0.00,VWS V14.01,2013-06-26 13:30:00,
2013-06-26 09:35:00,72.3,59.0,27.55,ESE,120,0.0,0.0,63,0.00,,---,0.00,VWS V14.01,2013-06-26 13:35:00,
2013-06-26 09:40:00,72.5,58.8,27.55,ESE,120,2.7,2.7,62,0.00,,---,0.00,VWS V14.01,2013-06-26 13:40:00,
2013-06-26 09:45:00,73.0,58.8,27.55,ESE,103,2.7,3.1,61,0.00,,---,0.00,VWS V14.01,2013-06-26 13:45:00,
2013-06-26 09:50:00,73.2,58.0,27.55,ESE,102,0.0,2.2,59,0.00,,---,0.00,VWS V14.01,2013-06-26 13:50:00,
2013-06-26 09:55:00,73.6,57.4,27.55,ESE,102,0.0,0.0,57,0.00,,---,0.00,VWS V14.01,2013-06-26 13:55:00,
2013-06-26 10:01:00,74.1,57.4,27.55,ESE,115,2.2,2.7,56,0.00,,---,0.00,VWS V14.01,2013-06-26 14:01:00,
2013-06-26 10:06:00,74.5,56.8,27.55,ESE,114,2.2,3.1,54,0.00,,---,0.00,VWS V14.01,2013-06-26 14:06:00,
2013-06-26 10:11:00,75.0,56.2,27.52,ESE,120,2.7,4.0,52,0.00,,---,0.00,VWS V14.01,2013-06-26 14:11:00,
2013-06-26 10:16:00,75.2,54.8,27.52,East,79,3.1,3.1,49,0.00,,---,0.00,VWS V14.01,2013-06-26 14:16:00,
2013-06-26 10:21:00,75.6,53.9,27.52,ESE,114,2.7,2.7,47,0.00,,---,0.00,VWS V14.01,2013-06-26 14:21:00,
2013-06-26 10:26:00,75.9,53.1,27.52,ESE,114,2.7,2.7,45,0.00,,---,0.00,VWS V14.01,2013-06-26 14:26:00,
2013-06-26 10:31:00,76.1,52.0,27.52,ESE,114,0.0,3.1,43,0.00,,---,0.00,VWS V14.01,2013-06-26 14:31:00,
2013-06-26 10:36:00,76.5,52.3,27.52,ESE,114,0.0,0.0,43,0.00,,---,0.00,VWS V14.01,2013-06-26 14:36:00,
2013-06-26 10:41:00,76.6,51.2,27.52,ESE,114,0.0,0.0,41,0.00,,---,0.00,VWS V14.01,2013-06-26 14:41:00,
2013-06-26 10:46:00,77.0,48.8,27.52,ESE,114,0.0,0.0,37,0.00,,---,0.00,VWS V14.01,2013-06-26 14:46:00,
2013-06-26 10:51:00,77.4,49.1,27.52,ESE,114,0.0,2.7,37,0.00,,---,0.00,VWS V14.01,2013-06-26 14:51:00,
2013-06-26 10:56:00,77.7,48.7,27.52,ESE,109,0.0,0.0,36,0.00,,---,0.00,VWS V14.01,2013-06-26 14:56:00,
2013-06-26 11:01:00,78.1,49.0,27.52,ESE,109,0.0,0.0,36,0.00,,---,0.00,VWS V14.01,2013-06-26 15:01:00,
2013-06-26 11:06:00,78.1,45.8,27.52,ENE,75,2.2,2.2,32,0.00,,---,0.00,VWS V14.01,2013-06-26 15:06:00,
2013-06-26 11:11:00,78.4,45.3,27.52,ENE,73,2.7,2.7,31,0.00,,---,0.00,VWS V14.01,2013-06-26 15:11:00,
2013-06-26 11:16:00,78.6,45.5,27.52,ESE,119,2.7,3.1,31,0.00,,---,0.00,VWS V14.01,2013-06-26 15:16:00,
2013-06-26 11:21:00,78.6,41.9,27.52,NE,50,0.0,2.2,27,0.00,,---,0.00,VWS V14.01,2013-06-26 15:21:00,
2013-06-26 11:26:00,78.8,40.0,27.52,NE,37,0.0,0.0,25,0.00,,---,0.00,VWS V14.01,2013-06-26 15:26:00,
2013-06-26 11:31:00,78.8,40.0,27.52,East,84,0.0,0.0,25,0.00,,---,0.00,VWS V14.01,2013-06-26 15:31:00,
2013-06-26 11:36:00,79.0,36.9,27.52,ENE,74,2.7,3.1,22,0.00,,---,0.00,VWS V14.01,2013-06-26 15:36:00,
2013-06-26 11:41:00,79.5,37.4,27.52,East,93,0.0,0.0,22,0.00,,---,0.00,VWS V14.01,2013-06-26 15:41:00,
2013-06-26 11:46:00,80.1,35.4,27.52,East,96,3.6,3.6,20,0.00,,---,0.00,VWS V14.01,2013-06-26 15:46:00,
2013-06-26 11:51:00,80.4,35.7,27.52,WSW,237,2.2,2.7,20,0.00,,---,0.00,VWS V14.01,2013-06-26 15:51:00,
2013-06-26 11:55:00,81.0,36.2,27.52,NE,38,4.0,4.0,20,0.00,,---,0.00,VWS V14.01,2013-06-26 15:55:00,
2013-06-26 12:00:00,81.5,36.6,27.52,ESE,119,0.0,2.7,20,0.00,,---,0.00,VWS V14.01,2013-06-26 16:00:00,
2013-06-26 12:06:00,82.0,37.0,27.52,ESE,119,0.0,3.1,20,0.00,,---,0.00,VWS V14.01,2013-06-26 16:06:00,
2013-06-26 12:11:00,82.2,33.1,27.52,ESE,120,0.0,0.0,17,0.00,,---,0.00,VWS V14.01,2013-06-26 16:11:00,
2013-06-26 12:15:00,82.6,31.9,27.52,ESE,104,2.2,2.2,16,0.00,,---,0.00,VWS V14.01,2013-06-26 16:15:00,
2013-06-26 12:20:00,82.4,22.7,27.52,ESE,104,0.0,2.7,11,0.00,,---,0.00,VWS V14.01,2013-06-26 16:20:00,
2013-06-26 12:26:00,81.1,23.8,27.52,West,262,3.1,3.1,12,0.00,,---,0.00,VWS V14.01,2013-06-26 16:26:00,
2013-06-26 12:30:00,79.3,34.8,27.52,SE,139,0.0,0.0,20,0.00,,---,0.00,VWS V14.01,2013-06-26 16:30:00,
2013-06-26 12:35:00,77.7,35.9,27.52,SE,139,0.0,0.0,22,0.04,,---,0.04,VWS V14.01,2013-06-26 16:35:00,
2013-06-26 12:40:00,76.1,40.7,27.52,SE,139,0.0,0.0,28,0.04,,---,0.04,VWS V14.01,2013-06-26 16:40:00,
2013-06-26 12:45:00,75.4,42.7,27.52,SE,139,0.0,0.0,31,0.04,,---,0.04,VWS V14.01,2013-06-26 16:45:00,
2013-06-26 12:50:00,75.2,45.7,27.52,ESE,114,3.1,3.1,35,0.04,,---,0.04,VWS V14.01,2013-06-26 16:50:00,
2013-06-26 12:55:00,75.9,50.5,27.52,ESE,113,2.7,2.7,41,0.04,,---,0.04,VWS V14.01,2013-06-26 16:55:00,
2013-06-26 13:00:00,77.2,53.0,27.52,ESE,105,0.0,2.7,43,0.04,,---,0.04,VWS V14.01,2013-06-26 17:00:00,
2013-06-26 13:05:00,78.3,54.6,27.52,ESE,106,2.2,2.2,44,0.04,,---,0.04,VWS V14.01,2013-06-26 17:05:00,
2013-06-26 13:10:00,79.2,55.4,27.52,ESE,113,2.7,2.7,44,0.04,,---,0.04,VWS V14.01,2013-06-26 17:10:00,
2013-06-26 13:15:00,79.9,55.4,27.52,ESE,113,0.0,0.0,43,0.04,,---,0.04,VWS V14.01,2013-06-26 17:15:00,
2013-06-26 13:20:00,79.9,54.1,27.52,ESE,113,0.0,0.0,41,0.04,,---,0.04,VWS V14.01,2013-06-26 17:20:00,
2013-06-26 13:25:00,79.5,53.8,27.52,ESE,113,0.0,0.0,41,0.04,,---,0.04,VWS V14.01,2013-06-26 17:25:00,
2013-06-26 13:30:00,79.2,53.5,27.52,ESE,113,0.0,0.0,41,0.04,,---,0.04,VWS V14.01,2013-06-26 17:30:00,
2013-06-26 13:35:00,79.0,54.0,27.52,ESE,113,0.0,2.2,42,0.00,,---,0.04,VWS V14.01,2013-06-26 17:35:00,
2013-06-26 13:40:00,79.2,54.1,27.52,SE,143,0.0,2.7,42,0.00,,---,0.04,VWS V14.01,2013-06-26 17:40:00,
2013-06-26 13:45:00,79.7,54.6,27.52,SE,143,0.0,0.0,42,0.00,,---,0.00,VWS V14.01,2013-06-26 17:45:00,
2013-06-26 13:50:00,79.7,53.3,27.52,ESE,103,0.0,0.0,40,0.00,,---,0.00,VWS V14.01,2013-06-26 17:50:00,
2013-06-26 13:55:00,79.5,52.4,27.49,ESE,103,0.0,2.2,39,0.00,,---,0.04,VWS V14.01,2013-06-26 17:55:00,
2013-06-26 14:01:00,79.5,51.7,27.49,ESE,106,0.0,0.0,38,0.00,,---,0.04,VWS V14.01,2013-06-26 18:01:00,
2013-06-26 14:06:00,79.7,51.2,27.49,ESE,113,2.2,3.1,37,0.00,,---,0.04,VWS V14.01,2013-06-26 18:06:00,
2013-06-26 14:11:00,80.6,51.2,27.49,East,81,0.0,2.7,36,0.00,,---,0.04,VWS V14.01,2013-06-26 18:11:00,
2013-06-26 14:16:00,81.7,46.4,27.49,ESE,109,0.0,0.0,29,0.00,,---,0.00,VWS V14.01,2013-06-26 18:16:00,
2013-06-26 14:21:00,82.6,47.1,27.49,ESE,109,0.0,0.0,29,0.00,,---,0.04,VWS V14.01,2013-06-26 18:21:00,
2013-06-26 14:26:00,82.9,46.5,27.49,ESE,116,2.2,3.6,28,0.00,,---,0.04,VWS V14.01,2013-06-26 18:26:00,
2013-06-26 14:31:00,83.7,42.0,27.49,ESE,116,2.2,2.2,23,0.00,,---,0.04,VWS V14.01,2013-06-26 18:31:00,
2013-06-26 14:36:00,84.2,24.0,27.49,ESE,117,2.2,3.1,11,0.00,,---,0.04,VWS V14.01,2013-06-26 18:36:00,
2013-06-26 14:41:00,85.1,33.9,27.49,ESE,117,0.0,0.0,16,0.00,,---,0.04,VWS V14.01,2013-06-26 18:41:00,
2013-06-26 14:46:00,86.0,29.5,27.49,ESE,117,0.0,0.0,13,0.00,,---,0.04,VWS V14.01,2013-06-26 18:46:00,
2013-06-26 14:51:00,86.2,25.6,27.49,ESE,117,0.0,0.0,11,0.00,,---,0.04,VWS V14.01,2013-06-26 18:51:00,
2013-06-26 14:56:00,85.8,17.8,27.49,ESE,117,0.0,2.2,8,0.00,,---,0.04,VWS V14.01,2013-06-26 18:56:00,
2013-06-26 15:01:00,85.6,17.6,27.49,ESE,117,2.7,2.7,8,0.00,,---,0.04,VWS V14.01,2013-06-26 19:01:00,
2013-06-26 15:06:00,84.9,17.1,27.49,ESE,117,0.0,0.0,8,0.00,,---,0.04,VWS V14.01,2013-06-26 19:06:00,
2013-06-26 15:11:00,84.7,17.0,27.49,SSE,158,2.7,2.7,8,0.00,,---,0.04,VWS V14.01,2013-06-26 19:11:00,
2013-06-26 15:16:00,84.0,23.9,27.49,SSE,151,0.0,0.0,11,0.00,,---,0.04,VWS V14.01,2013-06-26 19:16:00,
2013-06-26 15:21:00,83.3,29.2,27.49,SSE,151,0.0,0.0,14,0.00,,---,0.04,VWS V14.01,2013-06-26 19:21:00,
2013-06-26 15:26:00,83.1,36.6,27.46,SSE,152,2.2,2.7,19,0.00,,---,0.04,VWS V14.01,2013-06-26 19:26:00,
2013-06-26 15:31:00,82.8,37.6,27.46,SSE,152,0.0,0.0,20,0.00,,---,0.04,VWS V14.01,2013-06-26 19:31:00,
2013-06-26 15:36:00,82.6,37.5,27.46,SSE,152,0.0,0.0,20,0.00,,---,0.04,VWS V14.01,2013-06-26 19:36:00,
2013-06-26 15:41:00,82.4,37.3,27.46,SSE,152,0.0,0.0,20,0.00,,---,0.04,VWS V14.01,2013-06-26 19:41:00,
2013-06-26 15:46:00,82.2,38.4,27.46,SSE,152,0.0,0.0,21,0.00,,---,0.04,VWS V14.01,2013-06-26 19:46:00,
2013-06-26 15:51:00,82.2,38.4,27.46,SSE,149,0.0,0.0,21,0.00,,---,0.04,VWS V14.01,2013-06-26 19:51:00,
2013-06-26 15:56:00,82.4,38.6,27.46,East,85,0.0,0.0,21,0.00,,---,0.04,VWS V14.01,2013-06-26 19:56:00,
2013-06-26 16:01:00,82.6,38.7,27.46,ENE,72,2.7,3.6,21,0.00,,---,0.04,VWS V14.01,2013-06-26 20:01:00,
2013-06-26 16:06:00,82.6,37.5,27.46,ENE,65,2.2,2.2,20,0.00,,---,0.04,VWS V14.01,2013-06-26 20:06:00,
2013-06-26 16:11:00,82.0,38.3,27.46,ENE,65,0.0,0.0,21,0.00,,---,0.04,VWS V14.01,2013-06-26 20:11:00,
2013-06-26 16:16:00,81.5,39.0,27.46,ENE,65,0.0,0.0,22,0.00,,---,0.04,VWS V14.01,2013-06-26 20:16:00,
2013-06-26 16:21:00,80.6,40.5,27.46,West,279,2.2,2.2,24,0.00,,---,0.04,VWS V14.01,2013-06-26 20:21:00,
2013-06-26 16:26:00,79.7,43.8,27.46,West,279,0.0,0.0,28,0.00,,---,0.04,VWS V14.01,2013-06-26 20:26:00,
2013-06-26 16:31:00,79.3,45.2,27.46,SSW,211,0.0,0.0,30,0.00,,---,0.04,VWS V14.01,2013-06-26 20:31:00,
2013-06-26 16:36:00,79.2,45.1,27.46,SSW,211,0.0,0.0,30,0.00,,---,0.04,VWS V14.01,2013-06-26 20:36:00,
2013-06-26 16:41:00,79.0,44.9,27.46,SSW,211,0.0,0.0,30,0.00,,---,0.04,VWS V14.01,2013-06-26 20:41:00,
2013-06-26 16:46:00,78.8,45.6,27.46,SSW,211,0.0,0.0,31,0.00,,---,0.04,VWS V14.01,2013-06-26 20:46:00,
2013-06-26 16:51:00,78.4,45.3,27.46,SSW,211,0.0,0.0,31,0.00,,---,0.04,VWS V14.01,2013-06-26 20:51:00,
2013-06-26 16:56:00,78.3,45.2,27.46,SSW,211,0.0,0.0,31,0.00,,---,0.04,VWS V14.01,2013-06-26 20:56:00,
2013-06-26 17:01:00,77.9,44.9,27.46,SSW,211,0.0,0.0,31,0.00,,---,0.04,VWS V14.01,2013-06-26 21:01:00,
2013-06-26 17:06:00,77.5,45.4,27.46,SSW,211,0.0,0.0,32,0.00,,---,0.04,VWS V14.01,2013-06-26 21:06:00,
2013-06-26 17:11:00,77.2,45.1,27.43,SSW,211,0.0,0.0,32,0.00,,---,0.04,VWS V14.01,2013-06-26 21:11:00,
2013-06-26 17:16:00,76.8,45.6,27.43,SSW,211,0.0,0.0,33,0.00,,---,0.04,VWS V14.01,2013-06-26 21:16:00,
2013-06-26 17:21:00,76.6,45.4,27.43,SSW,211,0.0,0.0,33,0.00,,---,0.04,VWS V14.01,2013-06-26 21:21:00,
2013-06-26 17:26:00,76.3,45.9,27.43,SSW,211,0.0,0.0,34,0.00,,---,0.04,VWS V14.01,2013-06-26 21:26:00,
2013-06-26 17:31:00,75.9,46.3,27.43,SSW,211,0.0,0.0,35,0.00,,---,0.04,VWS V14.01,2013-06-26 21:31:00,
2013-06-26 17:36:00,75.7,46.9,27.43,SSW,211,0.0,0.0,36,0.00,,---,0.04,VWS V14.01,2013-06-26 21:36:00,
2013-06-26 17:41:00,75.6,47.5,27.46,SSW,211,0.0,0.0,37,0.00,,---,0.04,VWS V14.01,2013-06-26 21:41:00,
2013-06-26 17:46:00,75.6,48.2,27.46,SSW,211,0.0,0.0,38,0.00,,---,0.00,VWS V14.01,2013-06-26 21:46:00,
2013-06-26 17:51:00,75.7,49.0,27.46,SSW,211,0.0,0.0,39,0.00,,---,0.04,VWS V14.01,2013-06-26 21:51:00,
2013-06-26 17:56:00,76.1,50.0,27.46,SSW,211,0.0,0.0,40,0.00,,---,0.04,VWS V14.01,2013-06-26 21:56:00,
2013-06-26 18:01:00,76.3,50.2,27.46,SSW,211,0.0,0.0,40,0.00,,---,0.04,VWS V14.01,2013-06-26 22:01:00,
2013-06-26 18:06:00,76.3,50.2,27.46,SSW,211,0.0,0.0,40,0.00,,---,0.04,VWS V14.01,2013-06-26 22:06:00,
2013-06-26 18:11:00,76.3,50.2,27.43,SSW,211,0.0,0.0,40,0.00,,---,0.04,VWS V14.01,2013-06-26 22:11:00,
2013-06-26 18:16:00,76.5,50.4,27.43,SSW,211,0.0,0.0,40,0.00,,---,0.04,VWS V14.01,2013-06-26 22:16:00,
2013-06-26 18:21:00,76.5,50.4,27.43,SSW,211,0.0,0.0,40,0.00,,---,0.04,VWS V14.01,2013-06-26 22:21:00,
2013-06-26 18:26:00,76.5,49.7,27.43,SSW,211,0.0,0.0,39,0.00,,---,0.04,VWS V14.01,2013-06-26 22:26:00,
2013-06-26 18:31:00,76.6,49.8,27.43,SSW,211,0.0,0.0,39,0.00,,---,0.04,VWS V14.01,2013-06-26 22:31:00,
2013-06-26 18:36:00,76.6,49.8,27.43,SSW,211,0.0,0.0,39,0.00,,---,0.04,VWS V14.01,2013-06-26 22:36:00,
2013-06-26 18:41:00,76.6,50.5,27.43,SSW,211,0.0,0.0,40,0.00,,---,0.04,VWS V14.01,2013-06-26 22:41:00,
2013-06-26 18:46:00,76.6,50.5,27.43,SSW,211,0.0,0.0,40,0.00,,---,0.04,VWS V14.01,2013-06-26 22:46:00,
2013-06-26 18:51:00,76.6,50.5,27.43,SSW,211,0.0,0.0,40,0.00,,---,0.04,VWS V14.01,2013-06-26 22:51:00,
2013-06-26 18:56:00,76.5,50.4,27.43,SSW,211,0.0,0.0,40,0.00,,---,0.04,VWS V14.01,2013-06-26 22:56:00,
2013-06-26 19:01:00,76.3,50.2,27.43,SSW,211,0.0,0.0,40,0.00,,---,0.04,VWS V14.01,2013-06-26 23:01:00,
2013-06-26 19:06:00,76.3,50.2,27.43,SSW,211,0.0,0.0,40,0.00,,---,0.04,VWS V14.01,2013-06-26 23:06:00,
2013-06-26 19:11:00,76.1,50.0,27.46,SSW,211,0.0,0.0,40,0.00,,---,0.04,VWS V14.01,2013-06-26 23:11:00,
2013-06-26 19:16:00,76.1,50.7,27.46,SSW,211,0.0,0.0,41,0.00,,---,0.04,VWS V14.01,2013-06-26 23:16:00,
2013-06-26 19:21:00,76.1,50.7,27.46,SSW,211,0.0,0.0,41,0.00,,---,0.04,VWS V14.01,2013-06-26 23:21:00,
2013-06-26 19:26:00,76.1,50.7,27.43,SSW,211,0.0,0.0,41,0.00,,---,0.04,VWS V14.01,2013-06-26 23:26:00,
2013-06-26 19:31:00,76.1,50.7,27.43,SSW,211,0.0,0.0,41,0.00,,---,0.04,VWS V14.01,2013-06-26 23:31:00,
2013-06-26 19:36:00,76.1,50.7,27.43,SSW,211,0.0,0.0,41,0.00,,---,0.00,VWS V14.01,2013-06-26 23:36:00,
2013-06-26 19:41:00,76.1,50.7,27.43,SSW,211,0.0,0.0,41,0.00,,---,0.04,VWS V14.01,2013-06-26 23:41:00,
2013-06-26 19:46:00,76.1,50.7,27.43,SSW,211,0.0,0.0,41,0.00,,---,0.04,VWS V14.01,2013-06-26 23:46:00,
2013-06-26 19:51:00,75.9,51.2,27.43,SSW,211,0.0,0.0,42,0.00,,---,0.04,VWS V14.01,2013-06-26 23:51:00,
2013-06-26 19:56:00,75.7,51.0,27.46,SSW,211,0.0,0.0,42,0.00,,---,0.04,VWS V14.01,2013-06-26 23:56:00,
2013-06-26 20:01:00,75.7,51.0,27.46,SSW,211,0.0,0.0,42,0.00,,---,0.04,VWS V14.01,2013-06-27 00:01:00,
2013-06-26 20:06:00,75.6,50.9,27.46,SSW,211,0.0,0.0,42,0.00,,---,0.04,VWS V14.01,2013-06-27 00:06:00,
2013-06-26 20:11:00,75.4,50.7,27.43,SSW,211,0.0,0.0,42,0.00,,---,0.04,VWS V14.01,2013-06-27 00:11:00,
2013-06-26 20:16:00,75.0,50.4,27.43,SSW,211,0.0,0.0,42,0.00,,---,0.04,VWS V14.01,2013-06-27 00:16:00,
2013-06-26 20:21:00,74.7,50.1,27.43,SSW,211,0.0,0.0,42,0.00,,---,0.04,VWS V14.01,2013-06-27 00:21:00,
2013-06-26 20:26:00,74.5,50.5,27.43,SSW,211,0.0,0.0,43,0.00,,---,0.04,VWS V14.01,2013-06-27 00:26:00,
2013-06-26 20:31:00,74.1,50.2,27.43,SSW,211,0.0,0.0,43,0.00,,---,0.04,VWS V14.01,2013-06-27 00:31:00,
2013-06-26 20:36:00,73.9,50.1,27.43,SSW,211,0.0,0.0,43,0.00,,---,0.04,VWS V14.01,2013-06-27 00:36:00,
2013-06-26 20:41:00,73.8,50.5,27.43,SSW,211,0.0,0.0,44,0.00,,---,0.04,VWS V14.01,2013-06-27 00:41:00,
2013-06-26 20:46:00,73.6,50.3,27.43,SSW,211,0.0,0.0,44,0.00,,---,0.04,VWS V14.01,2013-06-27 00:46:00,
2013-06-26 20:51:00,73.4,50.2,27.43,SSW,211,0.0,0.0,44,0.00,,---,0.04,VWS V14.01,2013-06-27 00:51:00,
2013-06-26 20:56:00,73.2,50.6,27.43,SSW,211,0.0,0.0,45,0.00,,---,0.04,VWS V14.01,2013-06-27 00:56:00,
2013-06-26 21:01:00,73.0,50.5,27.43,SSW,211,0.0,0.0,45,0.00,,---,0.04,VWS V14.01,2013-06-27 01:01:00,
2013-06-26 21:06:00,72.7,50.1,27.43,SSW,211,0.0,0.0,45,0.00,,---,0.04,VWS V14.01,2013-06-27 01:06:00,
2013-06-26 21:11:00,72.3,50.4,27.43,SSW,211,0.0,0.0,46,0.00,,---,0.04,VWS V14.01,2013-06-27 01:11:00,
2013-06-26 21:16:00,72.0,50.1,27.43,SSW,211,0.0,0.0,46,0.00,,---,0.04,VWS V14.01,2013-06-27 01:16:00,
2013-06-26 21:21:00,71.8,50.5,27.43,SSW,211,0.0,0.0,47,0.00,,---,0.04,VWS V14.01,2013-06-27 01:21:00,
2013-06-26 21:26:00,71.8,50.5,27.43,SSW,211,0.0,0.0,47,0.00,,---,0.04,VWS V14.01,2013-06-27 01:26:00,
2013-06-26 21:31:00,71.6,50.3,27.43,SSW,211,0.0,0.0,47,0.00,,---,0.00,VWS V14.01,2013-06-27 01:31:00,
2013-06-26 21:36:00,71.6,50.9,27.43,SSW,211,0.0,0.0,48,0.00,,---,0.04,VWS V14.01,2013-06-27 01:36:00,
2013-06-26 21:41:00,71.4,50.7,27.43,SSW,211,0.0,0.0,48,0.00,,---,0.04,VWS V14.01,2013-06-27 01:41:00,
2013-06-26 21:46:00,71.4,51.3,27.43,SSW,211,0.0,0.0,49,0.00,,---,0.04,VWS V14.01,2013-06-27 01:46:00,
2013-06-26 21:51:00,71.4,51.3,27.43,SSW,211,0.0,0.0,49,0.00,,---,0.04,VWS V14.01,2013-06-27 01:51:00,
2013-06-26 21:56:00,71.4,51.8,27.43,SSW,211,0.0,0.0,50,0.00,,---,0.04,VWS V14.01,2013-06-27 01:56:00,
2013-06-26 22:01:00,71.4,51.8,27.43,SSW,211,0.0,0.0,50,0.00,,---,0.04,VWS V14.01,2013-06-27 02:01:00,
2013-06-26 22:06:00,71.2,51.7,27.43,SSW,211,0.0,0.0,50,0.00,,---,0.04,VWS V14.01,2013-06-27 02:06:00,
2013-06-26 22:11:00,71.2,51.7,27.46,SSW,211,0.0,0.0,50,0.00,,---,0.04,VWS V14.01,2013-06-27 02:11:00,
2013-06-26 22:16:00,71.1,52.0,27.46,SSW,211,0.0,0.0,51,0.00,,---,0.04,VWS V14.01,2013-06-27 02:16:00,
2013-06-26 22:21:00,71.1,52.0,27.46,SSW,211,0.0,0.0,51,0.00,,---,0.04,VWS V14.01,2013-06-27 02:21:00,
2013-06-26 22:26:00,70.9,51.9,27.43,SSW,211,0.0,0.0,51,0.00,,---,0.04,VWS V14.01,2013-06-27 02:26:00,
2013-06-26 22:31:00,70.9,51.9,27.43,SSW,211,0.0,0.0,51,0.00,,---,0.04,VWS V14.01,2013-06-27 02:31:00,
2013-06-26 22:36:00,70.9,51.9,27.43,SSW,211,0.0,0.0,51,0.00,,---,0.04,VWS V14.01,2013-06-27 02:36:00,
2013-06-26 22:41:00,70.9,52.4,27.46,SSW,211,0.0,0.0,52,0.00,,---,0.04,VWS V14.01,2013-06-27 02:41:00,
2013-06-26 22:46:00,70.9,52.4,27.46,SSW,211,0.0,0.0,52,0.00,,---,0.04,VWS V14.01,2013-06-27 02:46:00,
2013-06-26 22:51:00,70.9,52.4,27.46,SSW,211,0.0,0.0,52,0.00,,---,0.04,VWS V14.01,2013-06-27 02:51:00,
2013-06-26 22:56:00,70.7,52.2,27.46,SSW,211,0.0,0.0,52,0.00,,---,0.04,VWS V14.01,2013-06-27 02:56:00,
2013-06-26 23:01:00,70.7,52.2,27.46,SSW,211,0.0,0.0,52,0.00,,---,0.04,VWS V14.01,2013-06-27 03:01:00,
2013-06-26 23:06:00,70.7,52.2,27.46,SSW,211,0.0,0.0,52,0.00,,---,0.04,VWS V14.01,2013-06-27 03:06:00,
2013-06-26 23:11:00,70.7,52.2,27.46,SSW,211,0.0,0.0,52,0.00,,---,0.04,VWS V14.01,2013-06-27 03:11:00,
2013-06-26 23:16:00,70.5,52.1,27.46,SSW,211,0.0,0.0,52,0.00,,---,0.04,VWS V14.01,2013-06-27 03:16:00,
2013-06-26 23:21:00,70.3,51.9,27.46,SSW,211,0.0,0.0,52,0.00,,---,0.00,VWS V14.01,2013-06-27 03:21:00,
2013-06-26 23:26:00,70.3,51.9,27.46,SSW,211,0.0,0.0,52,0.00,,---,0.04,VWS V14.01,2013-06-27 03:26:00,
2013-06-26 23:31:00,70.2,51.7,27.46,SSW,211,0.0,0.0,52,0.00,,---,0.04,VWS V14.01,2013-06-27 03:31:00,
2013-06-26 23:36:00,70.0,51.6,27.46,SSW,211,0.0,0.0,52,0.00,,---,0.04,VWS V14.01,2013-06-27 03:36:00,
2013-06-26 23:41:00,69.8,51.9,27.46,SSW,211,0.0,0.0,53,0.00,,---,0.04,VWS V14.01,2013-06-27 03:41:00,
2013-06-26 23:46:00,69.6,51.8,27.46,SSW,211,0.0,0.0,53,0.00,,---,0.04,VWS V14.01,2013-06-27 03:46:00,
2013-06-26 23:51:00,69.6,51.8,27.46,SSW,211,0.0,0.0,53,0.00,,---,0.04,VWS V14.01,2013-06-27 03:51:00,
2013-06-26 23:56:00,69.6,52.3,27.46,SSW,211,0.0,0.0,54,0.00,,---,0.04,VWS V14.01,2013-06-27 03:56:00,